Flag for Germany Weather past 2 weeks in Wolfsburg, Lower Saxony, Germany

Now
54 °F

Passing clouds.


Feels Like: 49 °F
Forecast: 38 / 49 °F
Wind: 15 mph from Southwest

Location: Braunschweig


UV Index: 0 (Low)

Visibility: N/A


Pressure: 30.24 "Hg

Humidity: 38%

Dew point: 28 °F

Location of WolfsburgLocation

Historic Weather in Wolfsburg

°F

Wolfsburg temperature yesterday

Maximum temperature yesterday: 57 °F (at 7:20 PM)
Minimum temperature yesterday: 32 °F (at 6:50 AM)
Average temperature yesterday: 49 °F

Past Weeks' High & Low Weather Summary

 TemperatureHumidityPressure
High72 °F (Apr 3, 2:50 PM)100% (Apr 3, 6:50 AM)30.48 "Hg (Apr 3, 6:50 AM)
Low32 °F (Apr 16, 6:50 AM)36% (Apr 16, 7:20 PM)29.65 "Hg (Apr 3, 6:50 AM)
Average52 °F81%30.00 "Hg
* Reported Apr 2 10:20 AM — Apr 17 10:50 AM, Wolfsburg, Weather by CustomWeather, © 2014

Note: Actual official high and low records may vary slightly from our data, if they occured in-between our weather recording intervals... More about our weather records

Advertising

Historic Weather Conditions — Data for Previous 24 hours

 ConditionsComfort  
Time TempWeatherWind HumidityBarometerVisibility
10:50 AM
Apr 17
52 °FSunny.15 mph41%30.24 "Hg10 mi
10:20 AM52 °FSunny.14 mph44%30.27 "Hg10 mi
9:50 AM50 °FSunny.8 mph50%30.27 "Hg10 mi
9:20 AM48 °FSunny.9 mph54%30.27 "Hg10 mi
8:50 AM46 °FSunny.7 mph53%30.27 "Hg10 mi
8:20 AM45 °FQuite cool.8 mph66%30.27 "HgN/A
7:50 AM37 °FSunny.8 mph100%30.30 "Hg10 mi
7:20 AM36 °FSunny.6 mph93%30.30 "Hg10 mi
6:50 AM34 °FClear.7 mph100%30.30 "Hg10 mi
9:20 PM
Apr 16
46 °FClear.6 mph53%30.39 "Hg10 mi
8:50 PM46 °FSunny.6 mph53%30.39 "Hg10 mi
8:20 PM50 °FSunny.5 mph47%30.39 "Hg10 mi
7:50 PM54 °FPassing clouds.6 mph41%30.39 "HgN/A
7:20 PM57 °FSunny.5 mph36%30.39 "Hg10 mi
6:50 PM55 °FSunny.7 mph38%30.39 "Hg10 mi
6:20 PM55 °FSunny.2 mph38%30.39 "Hg10 mi
5:50 PM55 °FSunny.3 mph41%30.42 "Hg10 mi
5:20 PM54 °FSunny.6 mph44%30.42 "Hg10 mi
4:50 PM54 °FPassing clouds.6 mph41%30.42 "HgN/A
4:20 PM54 °FSunny.2 mph41%30.42 "Hg10 mi
3:50 PM55 °FSunny.3 mph38%30.42 "Hg10 mi
3:20 PM55 °FSunny.3 mph38%30.42 "Hg10 mi
2:50 PM55 °FPassing clouds.7 mph38%30.42 "HgN/A
2:20 PM55 °FSunny.2 mph41%30.45 "Hg10 mi
1:50 PM54 °FSunny.7 mph41%30.45 "Hg10 mi
1:20 PM52 °FPassing clouds.8 mph44%30.45 "HgN/A
12:50 PM52 °FPassing clouds.6 mph54%30.45 "HgN/A
12:20 PM52 °FPassing clouds.6 mph47%30.45 "HgN/A
Weather by CustomWeather, © 2014

See weather overview